This demonstration page uses our WeatherBlox Daily Observations layout. Learn more.

Left ArrowRight Arrow

39.12711, -84.51439

Hourly Observations for August 29, 2017

Temp ( °F °C ) Dew Point ( °F °C ) Humidity (%) Winds ( mph kmh ) Pressure ( in mb ) Visibility ( mi km ) Precip ( " mm )
12:53 am 00:53 Partly Cloudy 66 18.9 65 18.3 96 96 Calm 30.03 1017 10 16 0.00 0.00
1:53 am 01:53 Mostly Clear 66 18.9 65 18.3 96 96 Calm 30.03 1017 10 16 0.00 0.00
2:53 am 02:53 Mostly Cloudy with Mist and Fog 64 17.8 64 17.8 100 100 Calm 30.02 1017 5 8 0.00 0.00
2:59 am 02:59 Mostly Cloudy with Mist and Fog 63 17.2 63 17.2 100 100 Calm 30.00 1016 2 3 0.00 0.00
3:06 am 03:06 Mostly Cloudy with Mist and Fog 63 17.2 63 17.2 100 100 Calm 30.00 1016 1 2 0.00 0.00
3:11 am 03:11 Mostly Cloudy with Mist and Fog 64 17.8 64 17.8 100 100 Calm 30.00 1016 3 5 0.00 0.00
3:18 am 03:18 Partly Cloudy with Mist and Fog 63 17.2 63 17.2 100 100 Calm 30.00 1016 2 2 0.00 0.00
3:33 am 03:33 Mostly Clear with Mist and Fog 63 17.2 63 17.2 100 100 NNW 3 6 30.00 1016 3 5 0.00 0.00
3:53 am 03:53 Mostly Clear with Mist and Fog 62 16.7 62 16.7 100 100 N 3 6 30.01 1016 6 10 0.00 0.00
4:08 am 04:08 Mostly Cloudy with Mist and Fog 63 17.2 63 17.2 100 100 NE 3 6 30.00 1016 2 3 0.00 0.00
4:11 am 04:11 Mostly Cloudy with Mist and Fog 63 17.2 63 17.2 100 100 E 3 6 30.00 1016 3 5 0.00 0.00
4:18 am 04:18 Cloudy with Mist and Fog 64 17.8 64 17.8 100 100 E 3 6 30.00 1016 5 8 0.00 0.00
4:53 am 04:53 Cloudy 65 18.3 65 18.3 100 100 Calm 30.02 1017 7 11 0.00 0.00
5:53 am 05:53 Cloudy 66 18.9 66 18.9 100 100 Calm 30.03 1017 8 13 0.00 0.00
6:16 am 06:16 Cloudy with Mist and Fog 66 18.9 66 18.9 100 100 Calm 30.03 1017 6 10 0.00 0.00
6:53 am 06:53 Cloudy with Mist and Fog 66 18.9 66 18.9 100 100 Calm 30.05 1018 6 10 0.01 0.25
7:09 am 07:09 Cloudy with Light Rain 66 18.9 66 18.9 100 100 ENE 5 7 30.03 1017 6 10 0.00 0.03
7:28 am 07:28 Cloudy with Light Rain 66 18.9 66 18.9 100 100 Calm 30.03 1017 5 8 0.02 0.51
7:46 am 07:46 Cloudy with Heavy Rain 66 18.9 66 18.9 100 100 ENE 6 9 30.03 1017 2 3 0.07 1.78
7:53 am 07:53 Cloudy with Light Rain 66 18.9 66 18.9 100 100 E 5 7 30.04 1017 3 4 0.08 2.03
7:55 am 07:55 Cloudy with Light Rain 66 18.9 66 18.9 100 100 ENE 5 7 30.03 1017 3 5 0.00 0.03
8:53 am 08:53 Mostly Cloudy 67 19.4 66 18.9 97 97 Calm 30.04 1017 7 11 0.01 0.25
9:36 am 09:36 Partly Cloudy 68 20 66 18.9 93 93 Calm 30.00 1016 8 13 0.00 0.00
9:53 am 09:53 Partly Cloudy 68 20 66 18.9 93 93 S 6 9 30.04 1017 9 14 0.00 0.00
10:53 am 10:53 Mostly Cloudy 70 21.1 67 19.4 90 90 VRB 3 6 30.04 1017 7 11 0.00 0.00
11:53 am 11:53 Mostly Cloudy 72 22.2 67 19.4 84 84 SSW 3 6 30.05 1018 10 16 0.00 0.00
12:53 pm 12:53 Partly Cloudy 75 23.9 67 19.4 76 76 Calm 30.03 1017 10 16 0.00 0.00
1:20 pm 13:20 Mostly Cloudy 75 23.9 67 19.4 76 76 SW 5 7 30.00 1016 10 16 0.00 0.00
1:53 pm 13:53 Mostly Cloudy 77 25 65 18.3 66 66 Calm 30.01 1016 10 16 0.00 0.00
2:27 pm 14:27 Mostly Cloudy with Nearby Thunderstorms 77 25 66 18.9 69 69 Calm 30.00 1016 10 16 0.00 0.03
2:49 pm 14:49 Cloudy 75 24 66 19 74 74 S 3 6 29.97 1015 10 16 0.00 0.03
2:53 pm 14:53 Cloudy 75 23.9 67 19.4 76 76 Calm 30.00 1016 10 16 0.00 0.03
2:59 pm 14:59 Cloudy with Thunderstorms 75 23.9 67 19.4 76 76 SSW 6 9 30.00 1016 3 4 0.03 0.76
3:08 pm 15:08 Cloudy with Strong Thunderstorms 71 21.7 69 20.6 94 94 W 9 15 30.00 1016 2 3 0.10 2.54
3:33 pm 15:33 Cloudy with Nearby Thunderstorms 71 21.7 69 20.6 94 94 WNW 5 7 29.97 1015 6 10 0.14 3.56
3:53 pm 15:53 Cloudy with Nearby Thunderstorms 72 22.2 69 20.6 91 91 WNW 5 7 30.00 1016 7 11 0.15 3.81
4:44 pm 16:44 Cloudy 71 21.7 67 19.4 87 87 N 10 17 30.00 1016 10 16 0.00 0.03
4:53 pm 16:53 Cloudy 70 21.1 67 19.4 90 90 N 13 20 30.01 1016 10 16 0.00 0.03
5:53 pm 17:53 Mostly Cloudy 72 22.2 68 20 87 87 Calm 30.00 1016 10 16 0.00 0.03
6:53 pm 18:53 Partly Cloudy 72 22.2 67 19.4 84 84 Calm 29.99 1016 10 16 0.00 0.00
7:53 pm 19:53 Mostly Sunny 70 21.1 67 19.4 90 90 Calm 29.99 1016 10 16 0.00 0.00
8:53 pm 20:53 Clear 67 19.4 67 19.4 100 100 Calm 30.00 1016 8 13 0.00 0.00
9:48 pm 21:48 Mostly Clear with Mist and Fog 64 18 64 18 100 100 Calm 30.00 1016 3 4 0.00 0.00
9:53 pm 21:53 Mostly Clear with Mist and Fog 65 18.3 65 18.3 100 100 Calm 30.02 1017 1 2 0.00 0.00
9:55 pm 21:55 Clear with Mist and Fog 65 18.3 65 18.3 100 100 Calm 30.00 1016 4 6 0.00 0.00
10:53 pm 22:53 Mostly Clear with Mist and Fog 64 17.8 64 17.8 100 100 Calm 30.01 1016 2 2 0.00 0.00
11:02 pm 23:02 Clear with Fog 62 16.7 62 16.7 100 100 Calm 30.00 1016 1 1 0.00 0.00
11:04 pm 23:04 Mostly Cloudy with Fog 62 16.7 62 16.7 100 100 Calm 30.00 1016 0 0 0.00 0.00
11:12 pm 23:12 Mostly Cloudy with Fog 62 16.7 62 16.7 100 100 Calm 30.00 1016 1 1 0.00 0.00
11:18 pm 23:18 Mostly Cloudy with Mist and Fog 63 17.2 63 17.2 100 100 Calm 30.00 1016 1 2 0.00 0.00
11:30 pm 23:30 Mostly Cloudy with Fog 62 16.7 62 16.7 100 100 SSW 3 6 30.00 1016 1 1 0.00 0.00
11:38 pm 23:38 Mostly Cloudy with Fog 63 17.2 63 17.2 100 100 Calm 30.00 1016 0 0 0.00 0.00
11:53 pm 23:53 Mostly Cloudy with Fog 64 17.8 64 17.8 100 100 Calm 30.02 1017 0 0 0.00 0.00

Powered by AerisWeather